Time,TemperatureF,DewpointF,PressureIn,WindDirection,WindDirectionDegrees,WindSpeedMPH,WindSpeedGustMPH,Humidity,HourlyPrecipIn,Conditions,Clouds,dailyrainin,SoftwareType,DateUTC
2013-05-07 00:01:00,62.1,52.5,30.00,North,0,7.0,8.0,71,0.00,,,0.01,meteohub,2013-05-07 04:01:00,
2013-05-07 00:02:00,62.1,52.5,30.00,North,0,5.0,8.0,71,0.00,,,0.01,meteohub,2013-05-07 04:02:00,
2013-05-07 00:03:00,61.9,52.3,30.00,North,0,2.0,8.0,71,0.00,,,0.01,meteohub,2013-05-07 04:03:00,
2013-05-07 00:04:00,61.9,52.3,30.00,North,0,4.0,8.0,71,0.00,,,0.01,meteohub,2013-05-07 04:04:00,
2013-05-07 00:07:00,61.9,52.3,30.00,North,0,0.0,11.0,71,0.00,,,0.01,meteohub,2013-05-07 04:07:00,
2013-05-07 00:12:00,61.9,52.3,30.00,North,0,3.0,11.0,71,0.00,,,0.01,meteohub,2013-05-07 04:12:00,
2013-05-07 00:17:00,61.5,52.0,30.00,North,0,4.0,11.0,71,0.00,,,0.01,meteohub,2013-05-07 04:17:00,
2013-05-07 00:22:00,61.5,52.3,30.00,North,0,2.0,9.0,72,0.00,,,0.01,meteohub,2013-05-07 04:22:00,
2013-05-07 00:27:00,61.3,52.2,30.00,North,0,3.0,9.0,72,0.00,,,0.01,meteohub,2013-05-07 04:27:00,
2013-05-07 00:32:00,61.3,52.2,30.00,North,0,5.0,7.0,72,0.00,,,0.01,meteohub,2013-05-07 04:32:00,
2013-05-07 00:37:00,61.2,52.5,30.00,North,0,5.0,7.0,73,0.00,,,0.01,meteohub,2013-05-07 04:37:00,
2013-05-07 00:42:00,61.2,52.5,30.00,North,0,2.0,7.0,73,0.00,,,0.01,meteohub,2013-05-07 04:42:00,
2013-05-07 00:47:00,61.0,52.3,29.99,North,0,5.0,5.0,73,0.00,,,0.01,meteohub,2013-05-07 04:47:00,
2013-05-07 00:52:00,61.0,52.3,29.99,North,0,1.0,5.0,73,0.00,,,0.01,meteohub,2013-05-07 04:52:00,
2013-05-07 00:57:00,60.8,52.5,29.99,North,0,1.0,8.0,74,0.00,,,0.01,meteohub,2013-05-07 04:57:00,
2013-05-07 01:02:00,60.8,52.5,29.99,North,0,4.0,8.0,74,0.00,,,0.01,meteohub,2013-05-07 05:02:00,
2013-05-07 01:07:00,60.6,52.3,29.99,North,0,7.0,7.0,74,0.00,,,0.01,meteohub,2013-05-07 05:07:00,
2013-05-07 01:12:00,60.6,52.3,29.99,North,0,2.0,7.0,74,0.00,,,0.01,meteohub,2013-05-07 05:12:00,
2013-05-07 01:17:00,60.4,52.5,29.99,North,0,3.0,8.0,75,0.00,,,0.01,meteohub,2013-05-07 05:17:00,
2013-05-07 01:23:00,60.4,52.5,29.99,North,0,4.0,8.0,75,0.00,,,0.01,meteohub,2013-05-07 05:23:00,
2013-05-07 01:28:00,60.4,52.5,29.99,North,0,2.0,7.0,75,0.00,,,0.01,meteohub,2013-05-07 05:28:00,
2013-05-07 01:34:00,60.3,52.7,29.99,North,0,2.0,7.0,76,0.00,,,0.01,meteohub,2013-05-07 05:34:00,
2013-05-07 01:40:00,60.4,52.5,29.99,North,0,0.0,7.0,75,0.00,,,0.01,meteohub,2013-05-07 05:40:00,
2013-05-07 01:46:00,60.3,52.7,29.98,North,0,6.0,7.0,76,0.00,,,0.01,meteohub,2013-05-07 05:46:00,
2013-05-07 01:52:00,60.3,52.7,29.98,North,0,4.0,7.0,76,0.00,,,0.01,meteohub,2013-05-07 05:52:00,
2013-05-07 01:57:00,60.3,52.7,29.98,North,0,1.0,6.0,76,0.00,,,0.01,meteohub,2013-05-07 05:57:00,
2013-05-07 02:02:00,60.3,52.7,29.98,North,0,2.0,6.0,76,0.00,,,0.01,meteohub,2013-05-07 06:02:00,
2013-05-07 02:07:00,60.1,52.5,29.98,North,0,4.0,6.0,76,0.00,,,0.01,meteohub,2013-05-07 06:07:00,
2013-05-07 02:12:00,60.1,52.5,29.97,North,0,6.0,7.0,76,0.00,,,0.01,meteohub,2013-05-07 06:12:00,
2013-05-07 02:17:00,60.1,52.5,29.97,North,0,3.0,7.0,76,0.00,,,0.01,meteohub,2013-05-07 06:17:00,
2013-05-07 02:22:00,60.1,52.5,29.97,North,0,3.0,7.0,76,0.00,,,0.01,meteohub,2013-05-07 06:22:00,
2013-05-07 02:27:00,60.1,52.9,29.97,North,0,5.0,6.0,77,0.00,,,0.01,meteohub,2013-05-07 06:27:00,
2013-05-07 02:32:00,60.1,52.9,29.97,North,0,3.0,6.0,77,0.00,,,0.01,meteohub,2013-05-07 06:32:00,
2013-05-07 02:37:00,60.1,52.9,29.97,North,0,4.0,6.0,77,0.00,,,0.01,meteohub,2013-05-07 06:37:00,
2013-05-07 02:42:00,60.1,52.9,29.97,North,0,0.0,6.0,77,0.00,,,0.01,meteohub,2013-05-07 06:42:00,
2013-05-07 02:47:00,59.9,52.7,29.97,North,0,3.0,5.0,77,0.00,,,0.01,meteohub,2013-05-07 06:47:00,
2013-05-07 02:52:00,59.9,52.7,29.97,North,0,3.0,5.0,77,0.00,,,0.01,meteohub,2013-05-07 06:52:00,
2013-05-07 02:57:00,59.7,52.5,29.97,North,0,0.0,7.0,77,0.00,,,0.01,meteohub,2013-05-07 06:57:00,
2013-05-07 03:02:00,59.7,52.9,29.96,North,0,3.0,7.0,78,0.00,,,0.01,meteohub,2013-05-07 07:02:00,
2013-05-07 03:07:00,59.7,52.9,29.96,North,0,3.0,8.0,78,0.00,,,0.01,meteohub,2013-05-07 07:07:00,
2013-05-07 03:12:00,59.7,52.9,29.96,North,0,3.0,8.0,78,0.00,,,0.01,meteohub,2013-05-07 07:12:00,
2013-05-07 03:17:00,59.7,52.9,29.96,North,0,3.0,8.0,78,0.00,,,0.01,meteohub,2013-05-07 07:17:00,
2013-05-07 03:22:00,59.5,52.7,29.96,North,0,3.0,8.0,78,0.00,,,0.01,meteohub,2013-05-07 07:22:00,
2013-05-07 03:27:00,59.5,52.7,29.97,North,0,2.0,7.0,78,0.00,,,0.01,meteohub,2013-05-07 07:27:00,
2013-05-07 03:32:00,59.5,53.1,29.97,North,0,3.0,7.0,79,0.00,,,0.01,meteohub,2013-05-07 07:32:00,
2013-05-07 03:37:00,59.7,53.2,29.97,North,0,2.0,8.0,79,0.00,,,0.01,meteohub,2013-05-07 07:37:00,
2013-05-07 03:42:00,59.7,53.2,29.96,North,0,3.0,10.0,79,0.00,,,0.01,meteohub,2013-05-07 07:42:00,
2013-05-07 03:47:00,59.5,53.1,29.96,North,0,2.0,10.0,79,0.00,,,0.01,meteohub,2013-05-07 07:47:00,
2013-05-07 03:52:00,59.5,53.1,29.96,North,0,3.0,5.0,79,0.00,,,0.01,meteohub,2013-05-07 07:52:00,
2013-05-07 03:58:00,59.5,53.1,29.96,North,0,1.0,6.0,79,0.00,,,0.01,meteohub,2013-05-07 07:58:00,
2013-05-07 04:04:00,59.7,53.2,29.96,North,0,3.0,7.0,79,0.00,,,0.01,meteohub,2013-05-07 08:04:00,
2013-05-07 04:10:00,59.5,53.1,29.96,North,0,3.0,7.0,79,0.00,,,0.01,meteohub,2013-05-07 08:10:00,
2013-05-07 04:16:00,59.5,53.4,29.96,North,0,2.0,7.0,80,0.00,,,0.01,meteohub,2013-05-07 08:16:00,
2013-05-07 04:22:00,59.5,53.4,29.96,North,0,1.0,6.0,80,0.00,,,0.01,meteohub,2013-05-07 08:22:00,
2013-05-07 04:27:00,59.4,53.2,29.96,North,0,1.0,5.0,80,0.00,,,0.01,meteohub,2013-05-07 08:27:00,
2013-05-07 04:32:00,59.4,53.2,29.96,North,0,2.0,5.0,80,0.00,,,0.01,meteohub,2013-05-07 08:32:00,
2013-05-07 04:37:00,59.4,53.2,29.96,North,0,2.0,5.0,80,0.00,,,0.01,meteohub,2013-05-07 08:37:00,
2013-05-07 04:42:00,59.4,53.2,29.96,North,0,2.0,5.0,80,0.00,,,0.01,meteohub,2013-05-07 08:42:00,
2013-05-07 04:47:00,59.4,53.2,29.96,North,0,3.0,5.0,80,0.00,,,0.01,meteohub,2013-05-07 08:47:00,
2013-05-07 04:52:00,59.4,53.2,29.95,North,0,3.0,5.0,80,0.00,,,0.01,meteohub,2013-05-07 08:52:00,
2013-05-07 04:57:00,59.4,53.2,29.96,North,0,2.0,5.0,80,0.00,,,0.01,meteohub,2013-05-07 08:57:00,
2013-05-07 05:02:00,59.4,53.2,29.96,North,0,1.0,5.0,80,0.00,,,0.01,meteohub,2013-05-07 09:02:00,
2013-05-07 05:07:00,59.4,53.2,29.96,North,0,1.0,5.0,80,0.00,,,0.01,meteohub,2013-05-07 09:07:00,
2013-05-07 05:12:00,59.4,53.2,29.96,North,0,3.0,6.0,80,0.00,,,0.01,meteohub,2013-05-07 09:12:00,
2013-05-07 05:18:00,59.2,53.1,29.96,North,0,0.0,6.0,80,0.00,,,0.01,meteohub,2013-05-07 09:18:00,
2013-05-07 05:24:00,59.2,53.1,29.96,North,0,1.0,6.0,80,0.01,,,0.02,meteohub,2013-05-07 09:24:00,
2013-05-07 05:30:00,59.2,53.1,29.96,North,0,2.0,6.0,80,0.01,,,0.02,meteohub,2013-05-07 09:30:00,
2013-05-07 05:36:00,59.2,53.1,29.96,North,0,1.0,5.0,80,0.01,,,0.02,meteohub,2013-05-07 09:36:00,
2013-05-07 05:42:00,59.2,53.4,29.97,North,0,3.0,5.0,81,0.01,,,0.02,meteohub,2013-05-07 09:42:00,
2013-05-07 05:47:00,59.0,53.2,29.96,North,0,6.0,6.0,81,0.01,,,0.02,meteohub,2013-05-07 09:47:00,
2013-05-07 05:52:00,58.8,53.1,29.97,North,0,2.0,7.0,81,0.01,,,0.02,meteohub,2013-05-07 09:52:00,
2013-05-07 05:57:00,58.8,53.1,29.97,North,0,0.0,7.0,81,0.01,,,0.02,meteohub,2013-05-07 09:57:00,
2013-05-07 06:02:00,58.6,52.9,29.97,North,0,2.0,7.0,81,0.01,,,0.02,meteohub,2013-05-07 10:02:00,
2013-05-07 06:07:00,58.6,53.2,29.97,North,0,0.0,6.0,82,0.01,,,0.02,meteohub,2013-05-07 10:07:00,
2013-05-07 06:12:00,58.6,53.2,29.97,North,0,1.0,6.0,82,0.01,,,0.02,meteohub,2013-05-07 10:12:00,
2013-05-07 06:17:00,58.6,53.2,29.97,North,0,0.0,5.0,82,0.00,,,0.02,meteohub,2013-05-07 10:17:00,
2013-05-07 06:22:00,58.6,53.4,29.97,North,0,0.0,5.0,83,0.00,,,0.02,meteohub,2013-05-07 10:22:00,
2013-05-07 06:28:00,58.6,53.4,29.97,North,0,1.0,3.0,83,0.00,,,0.02,meteohub,2013-05-07 10:28:00,
2013-05-07 06:34:00,58.6,53.4,29.97,North,0,0.0,2.0,83,0.00,,,0.02,meteohub,2013-05-07 10:34:00,
2013-05-07 06:40:00,58.6,53.4,29.97,North,0,1.0,3.0,83,0.00,,,0.02,meteohub,2013-05-07 10:40:00,
2013-05-07 06:45:00,58.6,53.4,29.98,North,0,1.0,3.0,83,0.00,,,0.02,meteohub,2013-05-07 10:45:00,
2013-05-07 06:51:00,58.6,53.4,29.97,North,0,0.0,3.0,83,0.00,,,0.02,meteohub,2013-05-07 10:51:00,
2013-05-07 06:57:00,58.6,53.8,29.98,North,0,2.0,3.0,84,0.00,,,0.02,meteohub,2013-05-07 10:57:00,
2013-05-07 07:02:00,58.6,53.8,29.98,North,0,2.0,3.0,84,0.00,,,0.02,meteohub,2013-05-07 11:02:00,
2013-05-07 07:07:00,58.8,54.0,29.98,North,0,1.0,4.0,84,0.00,,,0.02,meteohub,2013-05-07 11:07:00,
2013-05-07 07:12:00,59.2,54.3,29.99,North,0,0.0,4.0,84,0.00,,,0.02,meteohub,2013-05-07 11:12:00,
2013-05-07 07:17:00,59.4,54.5,29.99,North,0,0.0,4.0,84,0.00,,,0.02,meteohub,2013-05-07 11:17:00,
2013-05-07 07:22:00,59.5,54.7,29.98,North,0,3.0,4.0,84,0.00,,,0.02,meteohub,2013-05-07 11:22:00,
2013-05-07 07:27:00,59.5,54.3,29.99,North,0,1.0,5.0,83,0.00,,,0.02,meteohub,2013-05-07 11:27:00,
2013-05-07 07:33:00,59.7,54.5,29.99,North,0,2.0,5.0,83,0.00,,,0.02,meteohub,2013-05-07 11:33:00,
2013-05-07 07:39:00,60.1,54.9,29.99,North,0,2.0,5.0,83,0.00,,,0.02,meteohub,2013-05-07 11:39:00,
2013-05-07 07:45:00,60.4,55.2,29.99,North,0,2.0,7.0,83,0.00,,,0.02,meteohub,2013-05-07 11:45:00,
2013-05-07 07:51:00,61.0,55.8,30.00,North,0,1.0,7.0,83,0.00,,,0.02,meteohub,2013-05-07 11:51:00,
2013-05-07 07:57:00,61.5,55.6,30.00,North,0,4.0,6.0,81,0.00,,,0.02,meteohub,2013-05-07 11:57:00,
2013-05-07 08:02:00,61.9,55.9,30.00,North,0,2.0,6.0,81,0.00,,,0.02,meteohub,2013-05-07 12:02:00,
2013-05-07 08:07:00,62.2,56.3,30.00,North,0,0.0,6.0,81,0.00,,,0.02,meteohub,2013-05-07 12:07:00,
2013-05-07 08:12:00,62.4,56.5,30.00,North,0,5.0,7.0,81,0.00,,,0.02,meteohub,2013-05-07 12:12:00,
2013-05-07 08:17:00,62.8,56.5,30.00,North,0,9.0,9.0,80,0.00,,,0.02,meteohub,2013-05-07 12:17:00,
2013-05-07 08:22:00,63.0,55.9,30.00,North,0,6.0,10.0,78,0.00,,,0.02,meteohub,2013-05-07 12:22:00,
2013-05-07 08:27:00,63.3,56.3,30.00,North,0,3.0,10.0,78,0.00,,,0.02,meteohub,2013-05-07 12:27:00,
2013-05-07 08:32:00,63.7,56.7,30.01,North,0,4.0,10.0,78,0.00,,,0.02,meteohub,2013-05-07 12:32:00,
2013-05-07 08:37:00,63.9,56.5,30.01,North,0,4.0,9.0,77,0.00,,,0.02,meteohub,2013-05-07 12:37:00,
2013-05-07 08:42:00,63.9,56.8,30.01,North,0,7.0,7.0,78,0.00,,,0.02,meteohub,2013-05-07 12:42:00,
2013-05-07 08:47:00,63.9,56.5,30.01,North,0,6.0,9.0,77,0.00,,,0.02,meteohub,2013-05-07 12:47:00,
2013-05-07 08:52:00,63.7,56.3,30.01,North,0,0.0,9.0,77,0.00,,,0.02,meteohub,2013-05-07 12:52:00,
2013-05-07 08:57:00,63.9,56.5,30.01,North,0,5.0,9.0,77,0.00,,,0.02,meteohub,2013-05-07 12:57:00,
2013-05-07 09:02:00,63.9,56.5,30.01,North,0,4.0,8.0,77,0.00,,,0.02,meteohub,2013-05-07 13:02:00,
2013-05-07 09:07:00,63.9,56.5,30.02,North,0,7.0,8.0,77,0.00,,,0.02,meteohub,2013-05-07 13:07:00,
2013-05-07 09:12:00,64.0,56.7,30.02,North,0,2.0,8.0,77,0.00,,,0.02,meteohub,2013-05-07 13:12:00,
2013-05-07 09:17:00,64.4,56.7,30.02,North,0,6.0,10.0,76,0.00,,,0.02,meteohub,2013-05-07 13:17:00,
2013-05-07 09:22:00,64.6,57.2,30.02,North,0,6.0,12.0,77,0.00,,,0.02,meteohub,2013-05-07 13:22:00,
2013-05-07 09:27:00,64.9,57.6,30.02,North,0,6.0,12.0,77,0.00,,,0.02,meteohub,2013-05-07 13:27:00,
2013-05-07 09:32:00,65.3,57.6,30.01,North,0,4.0,12.0,76,0.00,,,0.02,meteohub,2013-05-07 13:32:00,
2013-05-07 09:37:00,65.5,57.4,30.02,North,0,8.0,13.0,75,0.00,,,0.02,meteohub,2013-05-07 13:37:00,
2013-05-07 09:42:00,65.7,57.6,30.01,North,0,5.0,13.0,75,0.00,,,0.02,meteohub,2013-05-07 13:42:00,
2013-05-07 09:47:00,65.8,57.4,30.02,North,0,7.0,13.0,74,0.00,,,0.02,meteohub,2013-05-07 13:47:00,
2013-05-07 09:52:00,65.8,57.7,30.01,North,0,4.0,12.0,75,0.00,,,0.02,meteohub,2013-05-07 13:52:00,
2013-05-07 09:57:00,66.0,58.3,30.02,North,0,3.0,12.0,76,0.00,,,0.02,meteohub,2013-05-07 13:57:00,
2013-05-07 10:02:00,66.4,58.3,30.02,North,0,4.0,12.0,75,0.00,,,0.02,meteohub,2013-05-07 14:02:00,
2013-05-07 10:07:00,66.7,58.6,30.02,North,0,6.0,11.0,75,0.00,,,0.02,meteohub,2013-05-07 14:07:00,
2013-05-07 10:12:00,66.9,58.3,30.02,North,0,14.0,16.0,74,0.00,,,0.02,meteohub,2013-05-07 14:12:00,
2013-05-07 10:17:00,66.6,58.1,30.02,North,0,5.0,16.0,74,0.00,,,0.02,meteohub,2013-05-07 14:17:00,
2013-05-07 10:22:00,66.4,58.3,30.02,North,0,4.0,16.0,75,0.00,,,0.02,meteohub,2013-05-07 14:22:00,
2013-05-07 10:27:00,66.6,58.5,30.02,North,0,4.0,15.0,75,0.00,,,0.02,meteohub,2013-05-07 14:27:00,
2013-05-07 10:32:00,66.7,58.6,30.02,North,0,9.0,14.0,75,0.00,,,0.02,meteohub,2013-05-07 14:32:00,
2013-05-07 10:37:00,66.7,58.6,30.02,North,0,6.0,14.0,75,0.00,,,0.02,meteohub,2013-05-07 14:37:00,
2013-05-07 10:42:00,66.9,58.8,30.02,North,0,8.0,14.0,75,0.00,,,0.02,meteohub,2013-05-07 14:42:00,
2013-05-07 10:47:00,66.7,59.0,30.02,North,0,10.0,14.0,76,0.00,,,0.02,meteohub,2013-05-07 14:47:00,
2013-05-07 10:52:00,66.7,58.6,30.02,North,0,8.0,13.0,75,0.00,,,0.02,meteohub,2013-05-07 14:52:00,
2013-05-07 10:57:00,67.1,59.4,30.02,North,0,6.0,14.0,76,0.00,,,0.02,meteohub,2013-05-07 14:57:00,
2013-05-07 11:02:00,67.5,58.8,30.02,North,0,8.0,14.0,74,0.00,,,0.02,meteohub,2013-05-07 15:02:00,
2013-05-07 11:07:00,67.5,58.5,30.02,North,0,6.0,14.0,73,0.00,,,0.02,meteohub,2013-05-07 15:07:00,
2013-05-07 11:12:00,68.2,59.5,30.02,North,0,7.0,16.0,74,0.00,,,0.02,meteohub,2013-05-07 15:12:00,
2013-05-07 11:17:00,68.5,59.5,30.02,North,0,6.0,16.0,73,0.00,,,0.02,meteohub,2013-05-07 15:17:00,
2013-05-07 11:22:00,68.7,59.0,30.02,North,0,8.0,15.0,71,0.00,,,0.02,meteohub,2013-05-07 15:22:00,
2013-05-07 11:27:00,69.1,59.7,30.02,North,0,9.0,15.0,72,0.00,,,0.02,meteohub,2013-05-07 15:27:00,
2013-05-07 11:32:00,69.3,59.5,30.02,North,0,9.0,14.0,71,0.01,,,0.03,meteohub,2013-05-07 15:32:00,
2013-05-07 11:37:00,69.4,59.5,30.02,North,0,4.0,14.0,71,0.01,,,0.03,meteohub,2013-05-07 15:37:00,
2013-05-07 11:42:00,70.0,60.1,30.01,North,0,2.0,14.0,71,0.01,,,0.03,meteohub,2013-05-07 15:42:00,
2013-05-07 11:47:00,69.8,59.9,30.01,North,0,5.0,18.0,71,0.01,,,0.03,meteohub,2013-05-07 15:47:00,
2013-05-07 11:52:00,70.0,60.1,30.01,North,0,9.0,18.0,71,0.01,,,0.03,meteohub,2013-05-07 15:52:00,
2013-05-07 11:57:00,70.0,59.7,30.01,North,0,12.0,18.0,70,0.01,,,0.03,meteohub,2013-05-07 15:57:00,
2013-05-07 12:02:00,70.0,59.7,30.01,North,0,11.0,17.0,70,0.01,,,0.03,meteohub,2013-05-07 16:02:00,
2013-05-07 12:07:00,70.3,59.7,30.01,North,0,7.0,17.0,69,0.01,,,0.03,meteohub,2013-05-07 16:07:00,
2013-05-07 12:12:00,70.7,60.1,30.01,North,0,7.0,15.0,69,0.01,,,0.03,meteohub,2013-05-07 16:12:00,
2013-05-07 12:17:00,70.5,59.4,30.00,North,0,14.0,16.0,68,0.01,,,0.03,meteohub,2013-05-07 16:17:00,
2013-05-07 12:22:00,70.9,59.4,30.00,North,0,9.0,17.0,67,0.01,,,0.03,meteohub,2013-05-07 16:22:00,
2013-05-07 12:27:00,71.2,58.8,30.00,North,0,10.0,17.0,65,0.00,,,0.03,meteohub,2013-05-07 16:27:00,
2013-05-07 12:32:00,71.4,59.0,29.99,North,0,5.0,17.0,65,0.00,,,0.03,meteohub,2013-05-07 16:32:00,
2013-05-07 12:37:00,71.6,59.7,29.99,North,0,7.0,17.0,66,0.00,,,0.03,meteohub,2013-05-07 16:37:00,
2013-05-07 12:42:00,71.4,59.0,29.99,North,0,3.0,15.0,65,0.00,,,0.03,meteohub,2013-05-07 16:42:00,
2013-05-07 12:47:00,72.0,59.5,30.00,North,0,8.0,15.0,65,0.00,,,0.03,meteohub,2013-05-07 16:47:00,
2013-05-07 12:52:00,71.1,58.6,29.99,North,0,8.0,18.0,65,0.00,,,0.03,meteohub,2013-05-07 16:52:00,
2013-05-07 12:57:00,70.7,58.3,29.99,North,0,5.0,18.0,65,0.00,,,0.03,meteohub,2013-05-07 16:57:00,
2013-05-07 13:02:00,70.7,58.3,29.99,North,0,6.0,18.0,65,0.00,,,0.03,meteohub,2013-05-07 17:02:00,
2013-05-07 13:07:00,70.5,58.1,30.00,North,0,5.0,16.0,65,0.00,,,0.03,meteohub,2013-05-07 17:07:00,
2013-05-07 13:12:00,70.3,58.5,29.99,North,0,7.0,15.0,66,0.00,,,0.03,meteohub,2013-05-07 17:12:00,
2013-05-07 13:17:00,70.9,59.0,29.99,North,0,11.0,15.0,66,0.00,,,0.03,meteohub,2013-05-07 17:17:00,
2013-05-07 13:22:00,71.1,59.2,29.99,North,0,7.0,15.0,66,0.00,,,0.03,meteohub,2013-05-07 17:22:00,
2013-05-07 13:27:00,70.9,59.4,29.99,North,0,9.0,16.0,67,0.00,,,0.03,meteohub,2013-05-07 17:27:00,
2013-05-07 13:32:00,71.1,59.5,29.99,North,0,7.0,16.0,67,0.00,,,0.03,meteohub,2013-05-07 17:32:00,
2013-05-07 13:37:00,71.8,60.3,29.99,North,0,6.0,12.0,67,0.00,,,0.03,meteohub,2013-05-07 17:37:00,
2013-05-07 13:42:00,72.3,59.9,29.99,North,0,5.0,12.0,65,0.00,,,0.03,meteohub,2013-05-07 17:42:00,
2013-05-07 13:47:00,72.7,59.7,29.99,North,0,11.0,15.0,64,0.00,,,0.03,meteohub,2013-05-07 17:47:00,
2013-05-07 13:52:00,72.5,59.5,29.98,North,0,6.0,15.0,64,0.00,,,0.03,meteohub,2013-05-07 17:52:00,
2013-05-07 13:57:00,73.0,60.1,29.99,North,0,12.0,15.0,64,0.00,,,0.03,meteohub,2013-05-07 17:57:00,
2013-05-07 14:02:00,73.0,60.1,29.98,North,0,6.0,18.0,64,0.00,,,0.03,meteohub,2013-05-07 18:02:00,
2013-05-07 14:07:00,73.6,59.7,29.98,North,0,9.0,18.0,62,0.00,,,0.03,meteohub,2013-05-07 18:07:00,
2013-05-07 14:12:00,73.8,60.4,29.98,North,0,15.0,16.0,63,0.00,,,0.03,meteohub,2013-05-07 18:12:00,
2013-05-07 14:17:00,73.0,60.1,29.98,North,0,6.0,16.0,64,0.00,,,0.03,meteohub,2013-05-07 18:17:00,
2013-05-07 14:22:00,73.6,61.2,29.98,North,0,7.0,20.0,65,0.00,,,0.03,meteohub,2013-05-07 18:22:00,
2013-05-07 14:27:00,74.1,60.8,29.98,North,0,11.0,20.0,63,0.00,,,0.03,meteohub,2013-05-07 18:27:00,
2013-05-07 14:32:00,74.1,60.3,29.98,North,0,7.0,15.0,62,0.00,,,0.03,meteohub,2013-05-07 18:32:00,
2013-05-07 14:37:00,74.1,60.3,29.97,North,0,5.0,15.0,62,0.00,,,0.03,meteohub,2013-05-07 18:37:00,
2013-05-07 14:42:00,73.6,60.3,29.97,North,0,8.0,17.0,63,0.00,,,0.03,meteohub,2013-05-07 18:42:00,
2013-05-07 14:47:00,72.7,59.7,29.97,North,0,8.0,18.0,64,0.00,,,0.03,meteohub,2013-05-07 18:47:00,
2013-05-07 14:52:00,72.7,60.3,29.97,North,0,6.0,18.0,65,0.00,,,0.03,meteohub,2013-05-07 18:52:00,
2013-05-07 14:57:00,72.5,59.5,29.97,North,0,5.0,19.0,64,0.00,,,0.03,meteohub,2013-05-07 18:57:00,
2013-05-07 15:02:00,73.2,60.8,29.96,North,0,4.0,19.0,65,0.00,,,0.03,meteohub,2013-05-07 19:02:00,
2013-05-07 15:07:00,73.9,60.6,29.96,North,0,8.0,19.0,63,0.00,,,0.03,meteohub,2013-05-07 19:07:00,
2013-05-07 15:12:00,73.6,60.6,29.96,North,0,6.0,18.0,64,0.00,,,0.03,meteohub,2013-05-07 19:12:00,
2013-05-07 15:17:00,73.8,61.3,29.96,North,0,8.0,18.0,65,0.00,,,0.03,meteohub,2013-05-07 19:17:00,
2013-05-07 15:22:00,74.3,61.3,29.96,North,0,9.0,16.0,64,0.00,,,0.03,meteohub,2013-05-07 19:22:00,
2013-05-07 15:27:00,74.7,60.8,29.95,North,0,9.0,14.0,62,0.00,,,0.03,meteohub,2013-05-07 19:27:00,
2013-05-07 15:32:00,74.5,60.6,29.95,North,0,14.0,14.0,62,0.00,,,0.03,meteohub,2013-05-07 19:32:00,
2013-05-07 15:37:00,74.5,61.0,29.96,North,0,13.0,18.0,63,0.00,,,0.03,meteohub,2013-05-07 19:37:00,
2013-05-07 15:42:00,74.5,61.0,29.95,North,0,9.0,19.0,63,0.00,,,0.03,meteohub,2013-05-07 19:42:00,
2013-05-07 15:47:00,74.7,60.8,29.94,North,0,8.0,19.0,62,0.00,,,0.03,meteohub,2013-05-07 19:47:00,
2013-05-07 15:52:00,74.8,61.0,29.94,North,0,8.0,19.0,62,0.00,,,0.03,meteohub,2013-05-07 19:52:00,
2013-05-07 15:57:00,75.0,60.3,29.94,North,0,6.0,15.0,60,0.00,,,0.03,meteohub,2013-05-07 19:57:00,
2013-05-07 16:02:00,75.7,59.9,29.94,North,0,12.0,22.0,58,0.01,,,0.04,meteohub,2013-05-07 20:02:00,
2013-05-07 16:07:00,75.9,60.6,29.94,North,0,8.0,22.0,59,0.01,,,0.04,meteohub,2013-05-07 20:07:00,
2013-05-07 16:12:00,75.6,60.6,29.94,North,0,6.0,22.0,60,0.01,,,0.04,meteohub,2013-05-07 20:12:00,
2013-05-07 16:17:00,75.7,59.9,29.94,North,0,11.0,15.0,58,0.01,,,0.04,meteohub,2013-05-07 20:17:00,
2013-05-07 16:22:00,75.4,60.1,29.94,North,0,3.0,16.0,59,0.01,,,0.04,meteohub,2013-05-07 20:22:00,
2013-05-07 16:27:00,75.4,60.1,29.94,North,0,4.0,16.0,59,0.01,,,0.04,meteohub,2013-05-07 20:27:00,
2013-05-07 16:32:00,75.7,60.8,29.94,North,0,9.0,14.0,60,0.01,,,0.04,meteohub,2013-05-07 20:32:00,
2013-05-07 16:37:00,75.4,59.0,29.94,North,0,7.0,14.0,57,0.01,,,0.04,meteohub,2013-05-07 20:37:00,
2013-05-07 16:42:00,75.4,59.0,29.94,North,0,10.0,14.0,57,0.01,,,0.04,meteohub,2013-05-07 20:42:00,
2013-05-07 16:47:00,75.4,59.0,29.94,North,0,4.0,14.0,57,0.01,,,0.04,meteohub,2013-05-07 20:47:00,
2013-05-07 16:52:00,75.6,59.2,29.94,North,0,3.0,14.0,57,0.01,,,0.04,meteohub,2013-05-07 20:52:00,
2013-05-07 16:57:00,76.5,59.2,29.93,North,0,7.0,14.0,55,0.01,,,0.04,meteohub,2013-05-07 20:57:00,
2013-05-07 17:02:00,77.0,59.5,29.93,North,0,6.0,10.0,55,0.00,,,0.04,meteohub,2013-05-07 21:02:00,
2013-05-07 17:07:00,77.4,58.3,29.93,North,0,7.0,15.0,52,0.00,,,0.04,meteohub,2013-05-07 21:07:00,
2013-05-07 17:13:00,77.4,57.7,29.93,North,0,6.0,15.0,51,0.00,,,0.04,meteohub,2013-05-07 21:13:00,
2013-05-07 17:19:00,77.5,57.9,29.94,North,0,4.0,16.0,51,0.00,,,0.04,meteohub,2013-05-07 21:19:00,
2013-05-07 17:25:00,76.8,57.4,29.94,North,0,6.0,16.0,51,0.00,,,0.04,meteohub,2013-05-07 21:25:00,
2013-05-07 17:30:00,76.5,57.0,29.94,North,0,3.0,15.0,51,0.00,,,0.04,meteohub,2013-05-07 21:30:00,
2013-05-07 17:36:00,76.6,56.7,29.94,North,0,8.0,14.0,50,0.00,,,0.04,meteohub,2013-05-07 21:36:00,
2013-05-07 17:42:00,77.0,56.3,29.94,North,0,7.0,17.0,49,0.00,,,0.04,meteohub,2013-05-07 21:42:00,
2013-05-07 17:47:00,77.4,56.7,29.94,North,0,5.0,17.0,49,0.00,,,0.04,meteohub,2013-05-07 21:47:00,
2013-05-07 17:52:00,76.8,56.8,29.94,North,0,8.0,17.0,50,0.00,,,0.04,meteohub,2013-05-07 21:52:00,
2013-05-07 17:57:00,76.6,56.7,29.94,North,0,10.0,16.0,50,0.00,,,0.04,meteohub,2013-05-07 21:57:00,
2013-05-07 18:02:00,76.6,57.2,29.94,North,0,8.0,17.0,51,0.00,,,0.04,meteohub,2013-05-07 22:02:00,
2013-05-07 18:07:00,76.8,56.8,29.94,North,0,2.0,17.0,50,0.00,,,0.04,meteohub,2013-05-07 22:07:00,
2013-05-07 18:12:00,77.0,57.0,29.94,North,0,8.0,13.0,50,0.00,,,0.04,meteohub,2013-05-07 22:12:00,
2013-05-07 18:17:00,76.5,57.0,29.94,North,0,4.0,13.0,51,0.00,,,0.04,meteohub,2013-05-07 22:17:00,
2013-05-07 18:22:00,75.9,56.5,29.95,North,0,7.0,13.0,51,0.00,,,0.04,meteohub,2013-05-07 22:22:00,
2013-05-07 18:27:00,75.7,56.3,29.94,North,0,6.0,15.0,51,0.00,,,0.04,meteohub,2013-05-07 22:27:00,
2013-05-07 18:32:00,75.9,56.5,29.94,North,0,2.0,15.0,51,0.00,,,0.04,meteohub,2013-05-07 22:32:00,
2013-05-07 18:37:00,76.3,56.8,29.94,North,0,7.0,15.0,51,0.00,,,0.04,meteohub,2013-05-07 22:37:00,
2013-05-07 18:42:00,75.9,55.9,29.94,North,0,12.0,12.0,50,0.00,,,0.04,meteohub,2013-05-07 22:42:00,
2013-05-07 18:47:00,75.6,56.1,29.94,North,0,6.0,12.0,51,0.00,,,0.04,meteohub,2013-05-07 22:47:00,
2013-05-07 18:52:00,75.4,56.5,29.94,North,0,3.0,12.0,52,0.00,,,0.04,meteohub,2013-05-07 22:52:00,
2013-05-07 18:57:00,75.6,56.7,29.95,North,0,5.0,12.0,52,0.00,,,0.04,meteohub,2013-05-07 22:57:00,
2013-05-07 19:02:00,75.6,57.2,29.95,North,0,7.0,10.0,53,0.00,,,0.04,meteohub,2013-05-07 23:02:00,
2013-05-07 19:07:00,75.4,57.0,29.95,North,0,8.0,10.0,53,0.00,,,0.04,meteohub,2013-05-07 23:07:00,
2013-05-07 19:12:00,75.2,56.8,29.95,North,0,4.0,11.0,53,0.00,,,0.04,meteohub,2013-05-07 23:12:00,
2013-05-07 19:17:00,75.0,56.7,29.96,North,0,5.0,15.0,53,0.00,,,0.04,meteohub,2013-05-07 23:17:00,
2013-05-07 19:22:00,74.8,57.0,29.96,North,0,4.0,15.0,54,0.00,,,0.04,meteohub,2013-05-07 23:22:00,
2013-05-07 19:27:00,74.7,56.8,29.96,North,0,5.0,15.0,54,0.00,,,0.04,meteohub,2013-05-07 23:27:00,
2013-05-07 19:32:00,74.5,57.2,29.96,North,0,3.0,14.0,55,0.00,,,0.04,meteohub,2013-05-07 23:32:00,
2013-05-07 19:37:00,74.5,57.2,29.96,North,0,4.0,12.0,55,0.00,,,0.04,meteohub,2013-05-07 23:37:00,
2013-05-07 19:42:00,74.1,56.8,29.96,North,0,5.0,8.0,55,0.00,,,0.04,meteohub,2013-05-07 23:42:00,
2013-05-07 19:47:00,73.9,56.8,29.96,North,0,7.0,8.0,55,0.00,,,0.04,meteohub,2013-05-07 23:47:00,
2013-05-07 19:52:00,73.8,56.7,29.97,North,0,7.0,13.0,55,0.00,,,0.04,meteohub,2013-05-07 23:52:00,
2013-05-07 19:57:00,73.8,56.7,29.97,North,0,6.0,13.0,55,0.00,,,0.04,meteohub,2013-05-07 23:57:00,
2013-05-07 20:02:00,73.6,56.8,29.97,North,0,6.0,13.0,56,0.00,,,0.04,meteohub,2013-05-08 00:02:00,
2013-05-07 20:07:00,73.4,56.7,29.97,North,0,5.0,13.0,56,0.00,,,0.00,meteohub,2013-05-08 00:07:00,
2013-05-07 20:12:00,73.2,56.7,29.98,North,0,3.0,12.0,56,0.00,,,0.00,meteohub,2013-05-08 00:12:00,
2013-05-07 20:17:00,73.2,57.0,29.98,North,0,3.0,12.0,57,0.00,,,0.00,meteohub,2013-05-08 00:17:00,
2013-05-07 20:22:00,73.0,56.8,29.98,North,0,4.0,10.0,57,0.00,,,0.00,meteohub,2013-05-08 00:22:00,
2013-05-07 20:27:00,73.0,57.4,29.99,North,0,6.0,10.0,58,0.00,,,0.00,meteohub,2013-05-08 00:27:00,
2013-05-07 20:32:00,72.9,57.2,29.99,North,0,2.0,8.0,58,0.00,,,0.00,meteohub,2013-05-08 00:32:00,
2013-05-07 20:37:00,72.9,57.7,29.99,North,0,3.0,8.0,59,0.00,,,0.00,meteohub,2013-05-08 00:37:00,
2013-05-07 20:42:00,72.7,57.6,29.99,North,0,5.0,9.0,59,0.00,,,0.00,meteohub,2013-05-08 00:42:00,
2013-05-07 20:47:00,72.7,57.6,29.99,North,0,6.0,10.0,59,0.00,,,0.00,meteohub,2013-05-08 00:47:00,
2013-05-07 20:52:00,72.5,57.4,29.99,North,0,10.0,10.0,59,0.00,,,0.00,meteohub,2013-05-08 00:52:00,
2013-05-07 20:57:00,72.3,57.2,30.00,North,0,4.0,10.0,59,0.00,,,0.00,meteohub,2013-05-08 00:57:00,
2013-05-07 21:02:00,72.3,57.7,30.00,North,0,3.0,10.0,60,0.00,,,0.00,meteohub,2013-05-08 01:02:00,
2013-05-07 21:07:00,72.1,57.6,30.00,North,0,3.0,10.0,60,0.00,,,0.00,meteohub,2013-05-08 01:07:00,
2013-05-07 21:12:00,72.0,57.7,30.00,North,0,3.0,9.0,61,0.00,,,0.00,meteohub,2013-05-08 01:12:00,
2013-05-07 21:17:00,71.8,57.6,30.00,North,0,5.0,12.0,61,0.00,,,0.00,meteohub,2013-05-08 01:17:00,
2013-05-07 21:22:00,71.6,57.9,30.00,North,0,5.0,12.0,62,0.00,,,0.00,meteohub,2013-05-08 01:22:00,
2013-05-07 21:27:00,71.2,57.9,30.00,North,0,5.0,12.0,63,0.00,,,0.00,meteohub,2013-05-08 01:27:00,
2013-05-07 21:32:00,71.2,57.9,30.00,North,0,6.0,11.0,63,0.00,,,0.00,meteohub,2013-05-08 01:32:00,
2013-05-07 21:37:00,71.1,58.3,30.01,North,0,3.0,11.0,64,0.00,,,0.00,meteohub,2013-05-08 01:37:00,
2013-05-07 21:42:00,71.1,58.3,30.01,North,0,4.0,11.0,64,0.00,,,0.00,meteohub,2013-05-08 01:42:00,
2013-05-07 21:47:00,70.9,58.1,30.01,North,0,6.0,11.0,64,0.00,,,0.00,meteohub,2013-05-08 01:47:00,
2013-05-07 21:52:00,70.7,58.3,30.01,North,0,7.0,10.0,65,0.00,,,0.00,meteohub,2013-05-08 01:52:00,
2013-05-07 21:57:00,70.5,58.1,30.02,North,0,4.0,10.0,65,0.00,,,0.00,meteohub,2013-05-08 01:57:00,
2013-05-07 22:02:00,70.5,58.1,30.02,North,0,5.0,10.0,65,0.00,,,0.00,meteohub,2013-05-08 02:02:00,
2013-05-07 22:07:00,70.3,58.1,30.02,North,0,6.0,10.0,65,0.00,,,0.00,meteohub,2013-05-08 02:07:00,
2013-05-07 22:12:00,70.2,58.3,30.02,North,0,8.0,8.0,66,0.00,,,0.00,meteohub,2013-05-08 02:12:00,
2013-05-07 22:17:00,70.0,58.5,30.03,North,0,3.0,13.0,67,0.00,,,0.00,meteohub,2013-05-08 02:17:00,
2013-05-07 22:22:00,69.8,58.3,30.03,North,0,3.0,13.0,67,0.00,,,0.00,meteohub,2013-05-08 02:22:00,
2013-05-07 22:27:00,69.6,58.1,30.03,North,0,5.0,13.0,67,0.00,,,0.00,meteohub,2013-05-08 02:27:00,
2013-05-07 22:32:00,69.4,58.5,30.03,North,0,6.0,11.0,68,0.00,,,0.00,meteohub,2013-05-08 02:32:00,
2013-05-07 22:37:00,69.3,58.6,30.03,North,0,3.0,12.0,69,0.00,,,0.00,meteohub,2013-05-08 02:37:00,
2013-05-07 22:42:00,69.1,58.5,30.04,North,0,3.0,12.0,69,0.00,,,0.00,meteohub,2013-05-08 02:42:00,
2013-05-07 22:47:00,68.9,58.3,30.04,North,0,3.0,12.0,69,0.00,,,0.00,meteohub,2013-05-08 02:47:00,
2013-05-07 22:52:00,68.7,58.5,30.04,North,0,3.0,10.0,70,0.00,,,0.00,meteohub,2013-05-08 02:52:00,
2013-05-07 22:57:00,68.5,58.3,30.04,North,0,0.0,8.0,70,0.00,,,0.00,meteohub,2013-05-08 02:57:00,
2013-05-07 23:02:00,68.4,58.6,30.04,North,0,2.0,8.0,71,0.00,,,0.00,meteohub,2013-05-08 03:02:00,
2013-05-07 23:07:00,68.2,58.5,30.04,North,0,2.0,8.0,71,0.00,,,0.00,meteohub,2013-05-08 03:07:00,
2013-05-07 23:13:00,68.0,58.6,30.04,North,0,2.0,10.0,72,0.01,,,0.01,meteohub,2013-05-08 03:13:00,
2013-05-07 23:19:00,67.8,58.5,30.04,North,0,2.0,10.0,72,0.01,,,0.01,meteohub,2013-05-08 03:19:00,
2013-05-07 23:25:00,67.6,58.6,30.04,North,0,5.0,10.0,73,0.01,,,0.01,meteohub,2013-05-08 03:25:00,
2013-05-07 23:31:00,67.5,58.5,30.04,North,0,3.0,5.0,73,0.01,,,0.01,meteohub,2013-05-08 03:31:00,
2013-05-07 23:37:00,67.3,58.6,30.04,North,0,1.0,7.0,74,0.01,,,0.01,meteohub,2013-05-08 03:37:00,
2013-05-07 23:42:00,67.3,58.6,30.04,North,0,2.0,7.0,74,0.01,,,0.01,meteohub,2013-05-08 03:42:00,
2013-05-07 23:47:00,66.9,58.8,30.04,North,0,2.0,7.0,75,0.01,,,0.01,meteohub,2013-05-08 03:47:00,
2013-05-07 23:52:00,66.7,58.6,30.04,North,0,2.0,7.0,75,0.01,,,0.01,meteohub,2013-05-08 03:52:00,
2013-05-07 23:57:00,66.7,59.0,30.04,North,0,4.0,7.0,76,0.01,,,0.01,meteohub,2013-05-08 03:57:00,